Regional Weather Roundup
Issued by NWS San Angelo, TX

Home | Current Version | Previous Version | Text Only | Print | Product List | Glossary On
Versions: 1 2 3 4 5 6 7 8 9 10 11 12 13 14 15 16 17 18 19 20 21 22 23 24 25 26 27 28 29 30 31 32 33 34 35 36 37 38 39 40 41 42 43 44 45 46 47 48 49 50
000
ASUS44 KSJT 201610
RWRSJT
WEST CENTRAL TEXAS REGIONAL WEATHER ROUNDUP
NATIONAL WEATHER SERVICE SAN ANGELO TX
1100 AM CDT SUN APR 20 2014

NOTE: "FAIR" INDICATES FEW OR NO CLOUDS BELOW 12,000 FEET WITH NO
SIGNIFICANT WEATHER AND/OR OBSTRUCTIONS TO VISIBILITY.

TXZ049-054-064>066-071>073-076>078-098-099-113-114-127-128-139-140-
154-155-168>170-201700
...LOCATIONS ACROSS WEST CENTRAL TEXAS...

CITY           SKY/WX    TMP DP  RH WIND       PRES   REMARKS
SAN ANGELO     LGT RAIN  67  59  75 SW7       30.11S
ABILENE        CLOUDY    67  56  67 S7        30.13S
DYESS AFB      NOT AVBL
JUNCTION       CLOUDY    71  59  65 S13G22    30.11S
SWEETWATER     CLOUDY    67  57  71 S10       30.16R
BROWNWOOD      PTSUNNY   68  59  73 SW13      30.13R
COLEMAN        PTSUNNY   70  57  62 S6        30.13R
SONORA         CLOUDY    66  63  88 S13G22    30.12R
OZONA          CLOUDY    63  61  94 S9        30.15R
BRADY          MOSUNNY   70  57  64 S12       30.11R
$$

TEXAS PANHANDLE/OKLAHOMA PANHANDLE

CITY           SKY/WX    TMP DP  RH WIND       PRES   REMARKS
AMARILLO       SUNNY     65  51  60 S16G24    30.07F
BORGER         CLOUDY    68  49  50 S16G22    30.05S
CANADIAN       PTSUNNY   71  55  56 S18       30.04F
DALHART        MOSUNNY   64  47  53 SW12      30.05S
DUMAS          SUNNY     66  49  54 SW18      30.04F
GUYMON         NOT AVBL
HEREFORD       MOSUNNY   64  50  61 SW17      30.08S
PAMPA          CLOUDY    65  51  59 SW17G25   30.07S
PERRYTON       SUNNY     69  52  53 S22G29    30.04S
$$

SOUTHERN PANHANDLE/SOUTH PLAINS/ROLLING PLAINS

CITY           SKY/WX    TMP DP  RH WIND       PRES   REMARKS
LUBBOCK        PTSUNNY   64  56  75 SW14      30.10R
SNYDER         LGT RAIN  62  59  88 S6        30.13R
CHILDRESS      CLOUDY    68  54  60 S9        30.09R
SEMINOLE       CLOUDY    60  57  89 SW8       30.14R FOG
$$

PERMIAN BASIN

CITY           SKY/WX    TMP DP  RH WIND       PRES   REMARKS
MIDLAND        CLOUDY    63  59  87 S9        30.12S
ODESSA         CLOUDY    62  58  86 S12       30.13R
WINK           MOSUNNY   65  59  81 S6        30.10R
$$

FAR WEST/SOUTHWEST MOUNTAINS/TRANS PECOS

CITY           SKY/WX    TMP DP  RH WIND       PRES   REMARKS
ALPINE         SUNNY     66  53  63 SW13      30.21S
DRYDEN           N/A     68  63  84 SE9       30.10R
EL PASO        MOSUNNY   62  48  60 CALM      30.15R
FORT STOCKTON  MOSUNNY   68  58  70 VRB5      30.11S
GUADALUPE PASS PTSUNNY   59  53  80 SW15      30.20R
MARFA          SUNNY     61  54  77 S5        30.21S
PECOS          MOSUNNY   64  58  79 W3        30.10S
$$

DALLAS/FORT WORTH METROPLEX

CITY           SKY/WX    TMP DP  RH WIND       PRES   REMARKS
DFW AIRPORT    PTSUNNY   75  55  49 S13       30.12R
FTW MEACHAM    MOSUNNY   75  54  47 S14G22    30.11R
DAL-EXECUTIVE  MOSUNNY   75  55  49 S9G20     30.12R
GRAND PRAIRIE  SUNNY     73  54  49 S10       30.14R
ADDISON        PTSUNNY   73  52  46 S13       30.13R
MESQUITE       SUNNY     72  57  60 S9        30.15R
LANCASTER      MOSUNNY   72  55  56 S7        30.15R
$$

NORTH CENTRAL TEXAS

CITY           SKY/WX    TMP DP  RH WIND       PRES   REMARKS
SHRMAN/DENISON CLOUDY    69  54  59 SE7       30.13F
GAINESVILLE    CLOUDY    65  58  76 S7        30.16R
BRIDGEPORT     PTSUNNY   70  53  54 S7        30.15R
DENTON         PTSUNNY   71  56  58 S10       30.13R
WAXAHACHIE     MOSUNNY   74  53  48 S13G18    30.14R
GRANBURY       MOSUNNY   76  53  44 S15G23    30.13R
$$

WESTERN NORTH TEXAS

CITY           SKY/WX    TMP DP  RH WIND       PRES   REMARKS
WICHITA FALLS  CLOUDY    67  55  65 S13G21    30.11R
VERNON           N/A    N/A N/A N/A SE10      30.10R
BRECKENRIDGE   CLOUDY    71  54  54 S9        30.12R
COMANCHE       MOSUNNY   71  59  65 S12G17    30.12R
$$

CENTRAL AND SOUTH CENTRAL TEXAS

CITY           SKY/WX    TMP DP  RH WIND       PRES   REMARKS
AUSTIN/BERGSTM CLOUDY    71  62  73 S16       30.14R
WACO           LGT RAIN  65  60  84 S12       30.15S
HILLSBORO      MOSUNNY   73  55  52 S16       30.15R
TEMPLE         PTSUNNY   66  57  72 S10       30.18S
KILLEEN-GRAY   TSTM      64  61  88 SE13      30.13F
FORT HOOD      NOT AVBL
GEORGETOWN     CLOUDY    66  61  82 SE8       30.14F
LAGO VISTA     CLOUDY    65  61  85 S6        30.16R
SAN MARCOS     CLOUDY    70  61  73 SE15      30.17R
NEW BRAUNFELS  CLOUDY    69  63  81 S13       30.14R
RANDOLPH AFB   CLOUDY    68  62  81 SE9       30.15S
SAN ANTONIO    DRIZZLE   68  63  84 SE12      30.15R
STINSON        CLOUDY    70  63  78 SE12      30.13S
PLEASANTON     NOT AVBL
LA GRANGE      MOSUNNY   72  65  80 SE9       30.15R
GIDDINGS       CLOUDY    69  61  74 SE7       30.19S
$$

EAST TEXAS

CITY           SKY/WX    TMP DP  RH WIND       PRES   REMARKS
PARIS          PTSUNNY   70  57  64 S5        30.17S
CLARKSVILLE    PTSUNNY   72  58  63 CALM      30.18R
TYLER          SUNNY     74  57  55 S9        30.15F
LONGVIEW       MOSUNNY   74  58  57 VRB6      30.17S
PALESTINE      PTSUNNY   71  56  59 S8        30.19R
NACOGDOCHES    SUNNY     73  57  56 S5        30.19F
$$

TEXAS HILL COUNTRY AND EDWARDS PLATEAU

CITY           SKY/WX    TMP DP  RH WIND       PRES   REMARKS
LLANO          CLOUDY    72  61  68 S14       30.16R
HORSESHOE BAY  CLOUDY    67  60  78 S8        30.13R
KERRVILLE      CLOUDY    65  61  87 S10       30.15S
FREDERICKSBRG  CLOUDY    67  59  75 S12G20    30.14R
ROCKSPRINGS    CLOUDY    63  63 100 SE12      30.16R FOG
HONDO          LGT RAIN  68  63  84 SE8       30.15R
UVALDE         DRIZZLE   68  67  97 SE8       30.13R
DEL RIO        CLOUDY    66  65  96 SE9       30.09S FOG
$$

SOUTHEAST TEXAS

CITY           SKY/WX    TMP DP  RH WIND       PRES   REMARKS
COLLEGE STN    MOSUNNY   72  60  66 S12       30.16S
CALDWELL       MOSUNNY   70  63  78 S10       30.19S
CROCKETT       MOSUNNY   73  64  73 SE5       30.20S
BRENHAM        MOSUNNY   71  63  75 SE10      30.17S
HUNTSVILLE     SUNNY     71  59  65 CALM      30.17F
CONROE         SUNNY     73  60  63 SE9       30.18F
HOUSTON BUSH   MOSUNNY   72  60  66 SE6       30.18F
HOUSTON HOBBY  MOSUNNY   72  57  59 CALM      30.19R
PERLAND        SUNNY     69  61  75 S3        30.21S
WHARTON        PTSUNNY   72  62  71 E9        30.19S
$$

THE UPPER TEXAS COAST

CITY           SKY/WX    TMP DP  RH WIND       PRES   REMARKS
ORANGE         SUNNY     73  54  51 N3        30.21S
PORT ARTHUR    SUNNY     76  55  48 CALM      30.19S
GALVESTON      MOSUNNY   72  66  81 E9        30.21R
ANGLETON       MOSUNNY   73  62  68 SE6       30.19R
BAY CITY       MOSUNNY   75  64  69 SE9       30.18S
$$

TEXAS COASTAL BEND, RIO GRANDE PLAINS DEEP SOUTH TEXAS

CITY           SKY/WX    TMP DP  RH WIND       PRES   REMARKS
VICTORIA       CLOUDY    75  62  64 SE15      30.16R
BEEVILLE       CLOUDY    74  65  71 SE13G20   30.13S
ROCKPORT       MOSUNNY   76  64  66 SE16      30.15R
PORT ARANSAS   MOSUNNY   73  65  78 SE13      30.15R
PORT LAVACA    NOT AVBL
CORPUS CHRISTI CLOUDY    76  63  64 SE16G25   30.14R
KINGSVILLE NAS CLOUDY    75  66  73 SE14      30.12S
COTULLA        CLOUDY    68  65  90 SE10      30.12R FOG
LAREDO         CLOUDY    72  66  81 SE16      30.12R
BROWNSVILLE    PTSUNNY   79  66  64 SE20      30.10S
PORT ISABEL    MOSUNNY   79  66  64 SE17G24   30.10S
HEBBRONVILLE   CLOUDY    70  65  85 E9        30.12R
MCALLEN        CLOUDY    76  66  71 E14       30.09R
WESLACO        PTSUNNY   80  64  57 SE12G22   30.08S
FALFURRIAS     CLOUDY    75  64  68 SE14      30.11S
EDINBURG       CLOUDY    80  65  60 SE14G20   30.09F
$$



USA.gov is the U.S. government's official web portal to all federal, state and local government web resources and services.